This demonstration page uses our WeatherBlox Daily Observations layout. Learn more.

Left ArrowRight Arrow

31.84235, -102.49876

Hourly Observations for March 8, 2018

Temp ( °F °C ) Dew Point ( °F °C ) Humidity (%) Winds ( mph kmh ) Pressure ( in mb ) Visibility ( mi km ) Precip ( " mm )
12:53 am 00:53 Clear 51 10.6 17 -8.3 26 26 ESE 8 13 30.10 1019 10 16 0.00 0.00
1:53 am 01:53 Clear 50 10 17 -8.3 27 27 ESE 9 15 30.09 1019 10 16 0.00 0.00
2:53 am 02:53 Clear 50 10 17 -8.3 27 27 SE 9 15 30.07 1018 10 16 0.00 0.00
3:53 am 03:53 Clear 49 9.4 16 -8.9 27 27 ESE 7 11 30.06 1018 10 16 0.00 0.00
4:53 am 04:53 Clear 49 9.4 16 -8.9 27 27 ESE 8 13 30.06 1018 10 16 0.00 0.00
5:53 am 05:53 Clear 49 9.4 16 -8.9 27 27 ESE 8 13 30.07 1018 10 16 0.00 0.00
6:53 am 06:53 Clear 48 8.9 16 -8.9 28 28 SE 10 17 30.07 1018 10 16 0.00 0.00
7:53 am 07:53 Sunny 49 9.4 16 -8.9 27 27 SE 12 19 30.08 1019 10 16 0.00 0.00
8:53 am 08:53 Sunny 51 10.6 18 -7.8 27 27 S 15 24 30.08 1019 10 16 0.00 0.00
9:53 am 09:53 Sunny 57 13.9 19 -7.2 23 23 S 16 26 30.08 1019 10 16 0.00 0.00
10:53 am 10:53 Sunny 61 16.1 18 -7.8 19 19 S 16 26 30.05 1018 10 16 0.00 0.00
11:53 am 11:53 Sunny 64 17.8 16 -8.9 15 15 S 20 31 30.02 1017 10 16 0.00 0.00
12:53 pm 12:53 Sunny 69 20.6 16 -8.9 13 13 SSW 21 33 29.98 1015 10 16 0.00 0.00
1:53 pm 13:53 Sunny 69 20.6 16 -8.9 13 13 SSW 15 24 29.95 1014 10 16 0.00 0.00
2:53 pm 14:53 Sunny 71 21.7 17 -8.3 13 13 S 18 30 29.92 1013 10 16 0.00 0.00
3:53 pm 15:53 Sunny 71 21.7 19 -7.2 14 14 SSW 17 28 29.89 1012 10 16 0.00 0.00
4:53 pm 16:53 Sunny 71 21.7 20 -6.7 14 14 S 20 31 29.86 1011 10 16 0.00 0.00
5:53 pm 17:53 Sunny 69 20.6 20 -6.7 15 15 S 18 30 29.87 1012 10 16 0.00 0.00
6:53 pm 18:53 Clear 65 18.3 21 -6.1 19 19 S 12 19 29.87 1012 10 16 0.00 0.00
7:53 pm 19:53 Clear 62 16.7 23 -5 22 22 S 13 20 29.90 1013 10 16 0.00 0.00
8:53 pm 20:53 Clear 58 14.4 24 -4.4 27 27 S 13 20 29.91 1013 10 16 0.00 0.00
9:53 pm 21:53 Clear 55 12.8 26 -3.3 33 33 SSE 12 19 29.90 1013 10 16 0.00 0.00
10:53 pm 22:53 Clear 55 12.8 29 -1.7 37 37 S 13 20 29.88 1012 10 16 0.00 0.00
11:53 pm 23:53 Clear 55 12.8 31 -0.6 40 40 S 14 22 29.85 1011 10 16 0.00 0.00

Powered by AerisWeather